Location: Kuppenheim
(48.8299°N, 8.2568°E)
Time: 13:31:09
(UTC+00:00)

Cosmos 2058 - Pass Details

Date: 20 June 2021
Orbit: 562 x 582 km, 82.5° (Epoch: 04 August)

Event Time Altitude Azimuth Distance (km) Brightness Sun altitude
Exits shadow 00:24:28 29° 160° (SSE) 1,053 3.8 -16.7°
Maximum altitude 00:26:19 55° 96° (E) 682 3.3 -16.6°
Drops below altitude 10° 00:30:20 10° 18° (NNE) 1,870 6.9 -16.4°
Sets 00:32:33 0° 14° (NNE) 2,773 8.3 -16.3°
